User: anonymous   Login
Location: Acheville
(50.3840°N, 2.8827°E)
Time: 01:18:20
(UTC+00:00)
Language:

Cosmos 1844 - Orbit

View from above orbital plane
View from above orbital plane
View from above satellite
View from above satellite

Ground track
Ground track

The orbit data is extracted from the following two-line orbital elements,

1 17973U 87041A   22019.31943092 -.00000109  00000-0 -31771-4 0  9997
2 17973  70.9012 338.7241 0028840 132.8017 227.5537 14.14142102790030
Epoch (UTC): 19 January 2022 07:39:58
Eccentricity: 0.0028840
inclination: 70.9012°
perigee height: 824 km
apogee height: 866 km
right ascension of ascending node: 338.7241°
argument of perigee: 132.8017°
revolutions per day: 14.14142102
mean anomaly at epoch: 227.5537°
orbit number at epoch: 79003

The dashed part of the orbit path shows where the satellite is in the earth's shadow,  

DLR